Theta_e
346 347 343 338 338 334 331 331 331 332 334 336 339 340 340 340 340 340 340 340 339 338 336 330 324 319 315 315 316 315 315 316 318 319 320 321 322 322 323 324 325 327 329 331 333 334 335 334 334 333 329 325 325 328 331 332 333 333 333 334 334 333 333 333 333 332 331 330 329 328 327 327 328 329 328 328 329 331 332 333 334 333 331 330 331
344 346 343 337 337 334 332 331 329 329 330 333 337 339 339 339 339 339 339 339 339 338 336 330 326 322 316 315 315 315 316 318 319 320 321 322 322 323 323 324 326 328 330 332 333 334 334 334 334 334 331 326 323 324 328 332 332 333 333 333 333 333 333 333 332 330 328 327 327 326 325 325 326 326 326 326 327 329 331 332 332 332 331 331 330
344 346 342 336 337 334 332 331 329 328 329 331 333 335 336 337 338 338 339 339 339 338 336 331 327 324 317 315 315 315 317 318 319 320 321 321 322 323 323 326 328 329 330 331 332 333 333 334 334 334 333 328 324 321 323 328 331 332 332 333 333 333 332 331 330 329 328 328 329 328 326 326 325 325 324 323 324 326 328 329 330 330 330 330 330
345 346 343 338 336 334 332 331 330 328 328 329 329 330 331 332 334 336 338 338 339 338 336 332 327 324 318 315 315 316 317 318 319 320 321 321 322 323 324 327 329 329 329 330 331 332 332 333 334 334 333 331 327 323 319 323 328 330 331 331 331 331 330 330 330 330 329 331 333 333 331 328 328 327 325 324 324 325 325 326 327 328 328 329 328
344 347 342 338 337 334 333 332 331 329 329 329 328 327 327 328 329 332 336 337 339 338 336 332 328 325 319 315 316 315 316 317 319 320 321 321 322 322 323 327 328 329 329 330 332 332 332 333 333 333 333 332 330 325 320 320 324 328 329 330 330 330 330 330 330 330 329 331 334 334 333 331 329 328 327 325 325 324 324 324 325 323 322 324 325
344 347 342 338 337 335 333 332 331 330 330 329 329 328 327 326 326 329 334 337 338 338 336 332 329 324 318 315 316 315 316 318 319 320 320 320 320 321 322 325 327 328 329 331 333 333 332 332 333 333 333 333 331 327 321 320 322 326 328 328 329 329 330 330 330 330 330 332 333 333 333 332 329 327 325 324 323 322 322 322 323 319 314 316 317
344 346 342 339 337 335 334 333 332 332 331 330 329 329 327 325 325 327 333 336 337 337 335 332 329 323 316 315 316 315 316 318 319 319 320 320 320 320 321 323 325 327 328 330 332 332 332 332 333 332 332 332 332 329 325 321 321 323 325 327 328 329 330 330 330 329 331 333 333 333 332 332 328 324 321 319 317 315 316 318 319 316 313 314 312
344 345 343 339 338 335 334 333 333 332 331 330 329 328 326 324 323 326 332 336 336 336 335 332 328 322 315 315 315 315 317 318 319 319 320 320 319 319 319 320 321 323 325 327 330 330 331 332 333 332 332 332 332 331 329 325 321 321 323 325 327 328 328 328 328 327 330 332 332 333 332 332 329 323 318 314 310 307 308 311 311 310 311 311 309
344 345 343 340 339 335 335 334 333 333 331 330 329 327 324 322 322 325 332 334 335 335 334 331 326 320 315 315 315 315 318 318 319 319 320 320 318 319 318 317 317 318 319 322 326 328 330 332 332 332 332 332 332 332 330 328 324 322 321 322 325 325 326 325 325 327 329 329 329 329 330 332 329 321 314 310 305 304 304 306 306 304 305 304 304
343 345 343 341 340 336 336 334 333 333 331 330 328 326 323 321 320 323 329 332 333 333 332 328 324 318 315 315 315 316 318 318 318 319 320 320 318 318 317 316 315 314 315 317 321 324 328 330 331 332 332 331 331 332 331 329 327 324 321 320 322 324 326 324 324 326 328 329 328 324 323 325 323 315 309 306 303 304 304 304 304 303 303 304 305
344 345 343 343 340 337 336 334 334 332 331 329 327 324 322 321 319 322 326 328 329 329 328 325 321 316 315 315 314 316 318 318 318 318 320 319 318 318 317 316 315 314 313 314 317 320 323 328 331 331 331 330 330 331 331 330 329 326 321 318 318 322 323 324 327 326 325 328 330 328 324 317 314 309 305 304 304 305 304 304 304 306 308 307 308
344 344 343 342 337 336 337 335 334 332 331 329 326 324 322 320 318 322 325 326 325 325 324 322 319 315 315 315 314 317 318 318 318 318 320 319 317 317 317 316 315 313 312 313 314 317 320 324 329 330 331 330 330 330 331 331 330 327 322 317 317 319 319 323 328 325 323 327 330 330 326 317 310 306 304 304 305 304 304 308 310 311 312 310 311
344 343 343 340 334 336 336 335 334 332 331 328 326 323 322 320 319 322 324 323 322 322 321 319 316 314 315 314 315 317 318 318 317 317 319 319 317 317 317 316 315 313 312 312 314 316 318 322 328 330 331 330 330 330 331 331 330 328 324 320 318 320 323 327 328 325 326 329 330 329 325 315 308 304 304 304 304 306 310 313 315 316 315 313 313
343 343 343 340 333 336 336 335 334 331 330 328 325 323 322 320 320 321 322 321 319 319 318 317 315 314 315 314 315 317 318 318 317 317 319 319 317 317 318 316 315 313 313 312 313 315 317 321 327 330 330 329 330 330 330 331 330 329 326 323 322 324 328 331 331 330 330 330 330 329 325 314 306 305 304 304 307 313 314 313 315 315 314 312 312
342 343 343 341 333 336 337 335 334 331 330 328 325 323 322 320 321 321 322 320 318 317 316 316 315 315 315 314 315 317 318 319 318 316 318 319 318 318 318 316 315 314 314 313 313 314 317 320 325 328 327 327 328 329 330 330 330 330 328 326 324 327 331 332 332 332 332 330 329 327 321 311 305 304 305 310 314 314 311 313 313 310 310 310 312
341 342 342 342 336 335 337 335 334 332 330 327 325 324 321 320 322 322 321 320 318 316 315 315 314 315 315 314 315 317 319 319 319 317 318 320 318 319 318 316 315 314 315 314 314 314 316 319 323 326 326 326 326 328 329 329 330 330 329 328 327 328 331 333 333 332 332 331 329 325 318 309 305 305 308 313 315 313 311 312 309 306 310 311 312
341 341 342 342 337 334 336 336 334 333 331 327 325 324 322 320 321 322 321 319 318 316 315 314 314 315 315 315 315 316 319 320 319 317 318 320 319 319 318 316 315 315 316 315 314 314 316 318 322 325 325 325 325 326 327 328 329 330 330 329 329 329 331 334 333 332 330 329 327 324 318 309 305 307 309 312 313 313 312 310 308 309 311 312 311
341 341 343 342 340 336 336 336 334 334 332 328 327 325 322 321 320 321 321 319 318 317 315 314 314 315 315 314 315 316 318 320 320 319 318 320 320 320 318 316 316 316 316 316 315 314 315 318 321 325 326 325 326 327 327 328 328 329 330 329 329 329 332 333 332 330 327 327 325 319 313 308 305 308 312 313 310 310 311 311 312 312 309 309 309
340 342 343 343 342 339 338 338 336 335 333 330 330 329 324 321 320 320 321 320 317 317 316 314 314 314 315 315 314 316 317 319 320 320 320 320 320 320 319 318 317 317 316 316 315 314 315 317 321 324 326 326 327 327 327 327 328 328 328 328 329 330 332 332 331 331 326 324 322 315 309 307 307 309 312 312 308 311 312 309 312 312 308 307 307
340 342 342 342 342 340 338 338 338 336 332 330 332 331 327 323 321 320 320 321 318 317 316 315 314 314 315 315 315 315 316 318 320 321 321 321 321 321 320 319 318 317 316 315 315 315 315 316 320 324 326 327 328 327 327 328 327 328 328 330 331 332 333 332 331 331 326 320 315 311 307 308 310 311 313 310 309 314 310 307 312 311 307 307 307
341 342 343 343 342 341 339 339 339 339 332 328 332 330 328 328 323 321 320 321 320 317 317 316 314 314 315 315 315 315 316 318 319 322 322 322 322 321 321 319 319 318 316 315 315 315 315 316 319 324 326 327 328 327 327 327 327 328 329 332 333 333 333 332 331 330 328 322 312 307 308 309 311 313 313 308 309 313 308 308 312 309 306 304 305
342 342 342 343 342 342 341 340 337 338 334 327 331 332 330 331 326 323 321 320 322 320 318 316 314 314 314 315 315 315 316 317 320 323 323 323 322 321 321 320 320 318 317 314 314 315 315 315 318 323 327 329 331 330 329 328 328 329 331 333 333 333 333 332 329 327 328 323 313 306 307 310 312 314 312 306 307 312 310 309 310 307 304 302 303
342 341 343 342 342 342 341 339 336 337 336 327 329 334 332 331 329 325 323 321 321 322 321 318 316 314 314 315 315 315 316 316 318 321 323 324 323 323 321 321 321 319 317 315 314 314 314 315 317 323 327 331 334 332 332 331 329 331 332 333 333 333 334 330 327 327 326 319 312 308 307 309 313 316 313 307 304 308 311 310 310 307 304 303 305
343 342 343 342 342 343 340 338 338 338 337 331 328 334 334 334 334 328 325 323 321 325 327 325 320 318 315 314 315 316 316 317 315 316 320 323 323 323 322 321 321 320 318 315 315 314 314 315 317 321 327 332 335 334 333 332 331 333 333 332 332 333 333 330 325 325 322 314 311 309 307 308 313 316 312 307 303 306 311 310 309 309 306 302 304
344 343 343 343 342 343 341 337 338 335 332 332 330 334 336 336 335 330 329 329 327 328 332 331 328 327 323 319 320 317 318 321 317 315 318 324 324 321 323 323 321 321 319 317 315 314 314 313 316 322 329 332 333 333 332 331 330 331 332 331 332 333 333 331 327 323 317 311 310 309 307 308 313 316 311 307 304 305 311 311 310 310 308 302 302
345 344 343 343 342 343 342 339 338 334 326 328 332 335 336 336 335 330 331 334 333 333 334 334 332 333 331 329 329 322 320 323 321 319 321 327 328 323 324 326 326 321 319 323 317 316 320 315 317 325 331 330 327 329 330 329 329 328 331 332 333 333 332 331 330 327 320 312 309 308 307 307 313 316 312 308 304 304 309 312 312 310 307 303 301
344 344 343 343 342 341 341 340 340 338 332 326 331 336 336 336 336 333 332 337 337 336 337 337 335 335 335 334 334 330 327 326 323 322 323 328 329 328 329 329 330 325 322 328 323 322 329 322 318 323 329 330 324 326 329 329 329 328 331 332 332 333 331 331 331 330 326 317 310 308 306 308 313 315 313 310 305 305 308 309 310 310 308 303 301
344 344 343 342 342 342 340 340 339 339 339 332 329 334 335 337 337 336 335 337 338 337 337 337 336 336 336 335 335 335 333 332 329 324 324 329 330 330 332 330 331 330 326 329 327 324 327 322 316 318 328 332 325 325 328 329 329 328 329 331 332 332 331 331 330 329 326 319 310 307 306 307 314 315 312 309 307 307 307 306 306 308 308 304 301
345 344 343 342 341 342 340 340 338 336 337 332 328 331 333 337 338 337 337 338 337 337 337 337 337 336 336 336 335 335 335 334 334 330 327 330 331 330 331 331 332 332 328 328 326 320 319 317 315 318 327 331 328 325 326 328 330 329 328 330 331 331 330 331 330 328 326 321 311 306 306 305 311 315 313 309 307 309 310 309 306 304 308 306 301
344 344 343 342 341 341 340 341 338 333 332 331 333 332 328 332 337 338 338 338 337 337 337 337 337 336 336 335 335 335 334 335 335 334 332 331 333 331 330 331 332 332 330 328 324 317 318 318 317 322 326 329 328 325 326 328 330 330 329 329 330 330 330 331 329 326 327 323 311 305 308 305 307 311 311 309 308 311 312 311 310 306 307 308 302
344 344 343 343 342 341 340 341 336 328 332 337 339 337 330 329 334 338 338 337 337 337 337 337 336 337 336 336 335 335 334 335 334 335 335 333 333 333 331 331 332 332 331 330 325 319 321 323 323 324 324 329 330 325 325 328 330 331 330 330 329 329 330 330 328 326 327 324 315 311 311 307 304 306 307 307 307 310 310 308 308 305 305 307 304
343 344 344 343 342 341 340 341 333 324 334 340 339 338 336 335 336 338 339 337 337 337 337 337 337 336 336 336 335 334 334 334 334 334 335 334 333 334 333 332 332 332 332 331 325 318 322 327 327 322 319 327 331 327 325 326 328 331 332 331 330 330 331 330 328 326 327 326 322 321 319 313 304 303 304 305 305 305 308 307 303 301 303 306 306
343 343 344 343 342 342 340 339 332 322 330 338 338 338 338 338 339 339 338 338 337 336 336 337 337 336 336 336 335 334 334 333 333 333 334 334 333 333 334 334 333 332 332 332 325 316 320 328 328 321 317 326 331 328 327 326 327 330 332 332 330 331 332 330 328 326 325 325 326 325 325 321 311 305 302 302 305 304 306 308 306 304 302 302 304
343 343 343 344 344 343 341 339 334 322 325 336 338 337 338 338 338 338 338 338 337 336 336 337 336 336 336 336 336 335 334 333 333 333 334 334 333 333 333 333 333 333 332 332 328 319 320 325 326 322 320 326 330 329 328 326 326 329 330 332 332 332 332 330 328 327 325 325 327 326 325 324 320 316 309 303 302 304 305 306 308 309 306 302 302
344 344 343 343 344 344 341 339 336 329 330 336 337 336 337 337 337 338 338 337 337 336 335 336 336 336 336 335 335 335 335 334 333 333 333 333 333 333 333 333 332 332 332 332 331 326 323 322 323 325 324 327 330 331 331 329 328 330 329 331 333 333 332 331 329 327 327 326 326 327 326 325 324 322 319 312 304 301 303 305 306 309 308 305 302
344 344 343 343 344 343 342 340 338 336 336 338 337 337 337 336 337 338 337 337 337 336 335 335 336 336 336 335 335 335 335 335 335 334 333 333 334 333 333 334 332 331 331 332 332 329 325 320 320 326 326 328 330 332 332 330 331 333 331 331 333 333 333 331 329 328 328 327 327 327 326 325 324 322 322 321 315 304 301 304 305 306 307 306 304
343 344 345 344 343 342 342 341 338 337 338 338 337 337 336 336 337 337 337 337 336 337 336 335 335 336 336 335 335 335 335 335 335 334 333 333 333 333 333 333 333 331 329 329 329 331 327 318 317 322 325 328 330 331 332 330 332 334 332 331 332 332 333 332 330 328 328 327 327 327 326 326 324 320 320 323 322 311 301 303 305 304 306 307 305
342 344 345 343 342 342 341 339 338 337 337 337 337 335 336 335 336 337 336 336 336 336 336 336 335 335 335 335 335 335 335 335 335 334 334 333 334 334 333 333 333 332 331 328 325 327 326 319 318 320 321 327 330 331 331 330 331 332 332 332 333 332 333 332 330 329 328 327 327 327 327 326 324 321 320 321 322 318 309 303 304 305 304 304 305
343 343 343 342 342 342 339 335 336 338 337 336 336 335 335 334 333 334 334 336 337 336 335 336 336 335 335 334 335 335 334 334 335 335 334 333 334 334 333 333 333 333 333 331 324 320 319 320 324 322 319 325 330 331 330 329 330 332 332 332 333 333 333 332 331 329 329 328 327 327 327 326 325 324 322 320 319 321 318 309 308 310 307 303 304
340 341 341 341 341 341 338 333 333 336 338 337 337 336 335 336 336 333 333 334 335 335 335 335 336 336 335 334 335 334 333 331 332 333 332 332 334 334 333 332 332 332 333 333 329 322 317 320 327 326 319 323 330 331 329 328 329 332 332 331 332 333 333 333 332 330 329 329 328 327 327 326 326 324 322 321 319 319 320 316 315 317 313 306 303
336 335 336 338 339 341 337 332 330 332 335 336 336 336 335 336 336 335 333 332 331 332 333 334 335 336 335 335 335 334 331 329 328 329 328 330 334 334 333 333 332 332 332 332 332 329 324 322 327 328 323 324 330 331 329 327 329 332 332 331 332 332 333 333 332 331 330 330 328 327 327 326 326 324 322 322 320 318 318 317 317 319 317 311 306
333 329 328 332 336 340 336 332 331 328 330 332 333 335 334 333 334 334 333 332 332 331 330 332 333 334 335 334 334 334 332 330 328 325 324 328 333 334 333 333 332 332 332 332 332 332 329 326 328 329 326 327 330 329 327 325 327 331 332 332 332 332 332 332 332 332 331 330 329 328 328 327 327 325 323 322 321 320 318 317 317 317 318 316 313
330 328 326 332 335 338 337 334 332 330 328 328 330 332 332 332 333 334 334 332 333 333 331 332 333 331 330 332 334 333 332 332 331 328 325 327 330 332 333 333 333 332 332 332 331 331 331 329 328 328 327 328 329 328 324 321 325 331 331 332 332 332 332 331 331 332 331 330 329 329 329 328 327 326 325 323 321 320 319 318 317 315 315 316 317
330 330 332 335 334 335 337 337 334 332 330 328 327 328 329 330 332 336 337 334 333 335 335 334 334 332 330 331 332 331 331 333 334 331 327 325 326 329 331 333 333 332 332 332 332 332 331 330 330 329 327 327 329 328 323 317 324 332 331 332 332 332 332 332 332 331 329 329 329 329 329 329 328 327 326 325 323 321 320 319 318 315 313 314 317
331 331 333 336 333 332 336 338 335 331 329 328 327 327 327 329 333 337 338 337 336 337 337 337 336 334 332 330 329 328 329 331 333 333 330 325 322 323 328 332 332 331 332 332 332 333 332 331 331 330 328 328 327 325 320 315 324 332 331 331 332 331 332 332 333 332 330 329 329 330 329 329 329 328 327 326 325 323 321 320 319 317 314 312 314
333 332 331 334 335 334 334 337 337 333 329 328 328 328 327 327 334 338 338 337 336 336 337 338 336 334 332 330 330 329 327 328 332 334 334 330 324 322 325 330 332 330 331 332 332 332 332 332 331 331 329 329 327 321 316 313 323 330 330 331 331 330 333 332 333 333 331 330 329 330 330 329 329 328 327 326 326 325 323 321 320 319 317 314 313
328 332 331 332 335 335 334 336 337 335 332 329 329 329 328 327 332 336 336 334 333 334 336 336 335 334 333 332 330 329 327 329 332 334 334 333 329 325 325 329 332 332 332 333 333 332 332 332 332 332 331 330 328 321 315 313 323 329 329 331 328 326 333 333 331 332 333 331 329 330 331 330 330 329 329 328 326 326 325 323 321 319 318 317 315
316 326 333 333 332 334 334 335 337 335 331 329 329 330 329 328 328 332 334 334 333 334 334 334 334 334 334 333 332 330 329 330 332 334 334 333 332 328 326 330 333 333 333 333 333 333 331 331 332 332 331 331 328 322 318 315 319 325 327 330 327 324 330 331 330 332 332 332 331 330 330 330 330 329 329 328 326 326 325 325 322 319 318 318 317
307 316 329 334 332 332 333 334 335 334 331 329 329 329 329 327 325 327 330 334 336 336 334 334 335 336 336 335 334 334 331 330 333 335 335 334 333 331 328 330 334 334 334 334 333 333 332 331 331 331 331 331 327 323 325 320 317 322 324 325 325 325 330 330 331 332 332 332 332 330 330 330 330 329 329 328 327 326 326 326 324 321 319 318 318
308 309 317 327 332 332 332 334 335 335 333 329 326 328 329 328 326 326 329 334 336 335 333 334 336 338 337 334 333 335 335 333 333 335 336 335 333 332 330 329 332 334 334 334 334 333 333 331 331 331 329 330 327 324 327 323 319 324 325 323 323 326 331 332 331 332 332 332 332 331 331 331 331 330 328 327 326 326 326 326 325 323 320 319 318
310 310 309 316 328 333 332 333 335 336 335 331 324 325 329 330 328 327 329 333 334 333 332 333 336 338 337 334 332 334 336 336 336 337 336 334 334 334 332 329 330 333 333 334 335 333 333 332 331 331 329 330 329 327 327 325 322 326 327 325 326 328 331 333 332 332 332 333 333 332 332 332 332 332 329 327 326 325 326 325 325 324 322 320 319
Wind_Speed
18 19 23 25 24 24 23 23 22 22 22 22 22 22 22 21 21 20 19 19 19 20 19 18 17 16 16 18 19 20 20 18 17 16 17 17 16 16 16 15 16 17 17 17 17 16 16 16 16 16 16 16 15 14 14 14 15 15 16 17 18 18 19 19 19 19 19 18 18 18 18 17 16 16 16 15 15 15 15 16 14 13 12 12 12
22 21 24 27 25 24 24 23 23 23 23 22 22 22 22 22 21 21 20 20 20 20 20 18 18 16 16 18 20 21 20 18 17 17 18 17 16 16 15 16 17 17 17 16 17 16 16 15 15 15 16 16 16 15 14 14 15 15 16 16 17 18 18 18 19 20 20 19 18 18 17 16 15 14 14 13 13 13 14 14 13 11 11 11 12
23 20 24 28 26 25 24 24 23 23 23 23 22 22 22 21 22 21 21 21 21 21 20 19 18 17 17 18 21 21 19 18 18 18 18 17 16 15 16 17 17 16 16 16 16 16 16 15 15 15 16 16 16 15 14 13 14 15 16 16 16 17 17 18 19 20 20 19 18 18 18 17 15 14 14 13 12 11 11 11 11 10 9 10 10
23 19 24 28 26 25 25 24 24 24 24 23 22 22 22 21 22 22 22 22 22 22 21 20 18 17 17 19 21 20 20 20 19 18 17 17 16 16 16 17 16 16 16 15 16 16 16 15 15 15 15 15 15 15 14 13 13 14 15 15 15 16 17 18 19 20 20 19 18 17 16 16 15 15 14 14 13 12 11 9 8 7 6 6 5
23 19 25 28 26 25 25 24 24 24 24 23 22 21 21 21 21 21 23 23 23 23 22 20 19 17 17 19 21 20 20 21 19 18 17 16 16 16 16 16 16 16 16 16 16 15 15 15 15 15 15 15 15 15 14 14 14 14 14 14 15 16 17 18 20 19 19 19 17 15 14 13 13 13 13 12 11 11 10 9 8 5 4 4 3
23 19 25 29 27 26 25 24 24 24 23 23 22 21 20 20 20 21 23 24 24 24 22 21 19 18 18 20 21 21 21 21 19 18 17 16 16 17 16 16 16 16 16 16 15 14 14 14 15 15 15 14 14 15 15 14 14 14 14 14 15 16 16 18 19 18 18 18 16 15 13 12 10 9 9 9 8 8 7 6 6 6 7 6 5
22 18 26 28 27 27 25 25 24 23 23 22 22 21 20 19 20 21 23 24 25 24 23 22 20 19 19 20 21 21 22 21 18 18 17 16 17 17 16 16 17 16 16 16 15 14 13 14 14 14 14 14 14 14 15 15 14 14 14 13 14 15 15 16 16 16 17 16 14 14 13 11 9 8 8 8 7 7 7 6 6 7 8 7 7
21 18 26 28 27 27 26 25 24 23 22 22 21 20 20 20 20 22 23 25 25 25 23 22 21 20 20 21 22 22 23 21 18 18 17 17 17 17 16 16 16 16 17 16 15 14 14 14 14 14 14 13 13 14 14 15 14 14 13 12 12 13 13 14 13 15 16 15 14 13 12 11 11 9 9 9 9 8 7 7 7 7 8 8 8
21 19 25 27 26 27 26 25 24 23 22 21 21 20 20 20 21 22 24 25 25 24 23 22 21 20 20 22 23 23 23 20 18 18 17 17 17 16 16 16 16 17 17 17 16 15 15 14 14 13 13 13 13 13 14 14 14 14 13 11 11 11 12 13 14 15 15 14 13 12 11 12 10 9 9 10 9 8 7 7 7 7 7 7 7
22 20 23 24 25 28 26 24 24 23 22 21 21 20 21 20 21 22 24 25 25 24 23 22 22 21 21 23 23 24 23 20 19 18 17 17 17 16 16 16 16 16 17 17 17 16 15 14 13 13 13 13 13 13 13 13 13 13 13 11 10 11 12 13 15 15 15 14 13 13 12 11 9 8 9 10 9 8 6 5 6 6 6 6 6
22 21 22 22 25 28 26 24 24 22 22 22 21 21 21 20 21 23 24 25 25 24 24 23 22 22 22 23 24 24 23 20 19 18 17 17 16 16 16 16 16 16 16 17 17 17 16 14 13 13 13 13 13 13 12 12 13 13 13 12 12 11 11 13 14 14 13 13 14 14 13 11 10 10 10 10 9 8 7 7 6 6 6 7 8
23 21 20 21 26 29 26 25 23 22 22 22 21 21 21 20 21 23 24 24 24 24 24 23 23 22 23 24 24 25 23 20 19 18 17 17 16 16 16 15 16 16 16 17 17 17 16 15 14 13 13 13 13 13 12 12 13 13 14 13 13 12 12 14 13 12 12 11 13 12 12 13 12 11 11 11 10 9 9 9 10 10 9 9 10
22 21 19 21 27 29 26 25 24 23 23 22 22 22 21 21 22 23 24 24 24 24 24 24 23 23 23 24 25 25 23 20 19 18 17 17 16 15 15 15 15 15 16 16 17 16 16 15 14 13 13 13 13 13 12 12 13 13 13 14 14 13 13 14 12 11 10 11 12 11 13 14 13 12 11 11 11 11 10 11 12 12 12 12 13
22 21 18 20 29 29 26 26 24 24 23 23 23 22 22 21 22 23 23 24 24 24 24 24 24 23 24 25 25 25 23 20 19 17 17 16 16 15 14 14 14 15 15 16 16 16 16 15 14 14 13 13 12 12 12 12 12 12 13 13 14 13 12 12 11 10 9 11 12 11 12 14 12 12 11 11 11 12 12 12 13 13 13 13 13
22 22 19 20 29 30 27 26 24 24 24 24 24 23 23 22 23 23 23 23 23 24 24 24 23 23 24 25 26 25 23 20 19 17 16 16 15 15 14 13 14 14 15 15 15 15 15 15 14 14 14 13 12 12 12 12 12 12 12 13 13 12 11 11 10 9 10 11 11 10 11 13 12 11 11 11 12 12 12 12 13 13 13 13 13
22 21 19 19 27 30 28 26 25 25 24 24 25 24 23 23 24 23 24 24 24 23 23 24 23 23 24 25 25 24 22 20 19 17 16 16 15 14 13 13 13 14 14 14 14 15 15 15 14 13 14 13 13 12 12 12 11 12 12 12 12 11 11 10 9 9 9 10 10 10 11 12 12 11 11 12 12 13 12 13 13 13 13 13 14
22 20 19 19 26 30 28 27 26 25 24 24 25 25 24 24 24 24 24 24 24 23 23 23 23 23 24 24 25 24 23 21 19 17 16 15 15 14 13 13 13 13 13 13 13 14 14 14 14 13 14 14 14 13 12 12 11 12 12 12 12 11 11 10 9 8 8 9 9 9 9 11 11 10 11 12 12 13 12 13 13 13 13 13 13
22 20 20 20 24 27 27 28 27 26 25 24 24 25 24 24 24 24 24 24 24 23 23 23 23 24 24 24 24 24 23 21 19 17 16 15 15 14 13 13 12 12 12 12 12 13 14 13 13 13 13 13 14 13 13 13 12 12 12 13 13 12 12 11 8 6 7 9 9 8 9 10 11 11 11 12 12 12 12 13 13 13 13 13 13
21 20 20 20 22 25 25 27 28 27 26 25 24 24 25 24 23 24 24 24 24 23 23 23 23 24 24 24 24 24 23 21 19 18 16 15 15 14 13 13 12 12 11 11 11 12 13 13 13 13 13 13 13 13 13 13 13 13 13 14 13 12 12 10 8 6 6 9 8 8 10 11 11 11 11 12 12 12 12 13 13 13 13 12 12
21 21 22 21 22 24 25 26 27 27 27 26 25 26 25 24 24 23 24 24 24 24 23 23 23 23 24 25 25 25 24 22 20 19 17 16 15 15 14 13 12 12 11 11 10 11 12 12 12 12 12 12 12 13 14 14 13 14 14 14 13 12 10 8 7 6 7 9 9 9 10 11 11 11 12 12 11 12 12 12 12 13 14 13 13
22 23 23 23 24 25 25 25 26 25 27 28 26 27 26 24 24 24 24 24 24 24 23 23 23 23 24 25 25 25 25 23 21 20 18 18 17 15 14 13 13 12 11 11 10 11 11 11 12 12 11 11 12 13 13 13 13 14 14 13 12 10 8 7 6 7 8 8 9 10 10 10 10 10 11 12 11 12 12 12 12 13 14 14 13
23 24 25 25 25 26 26 26 27 26 27 29 26 25 26 25 25 25 24 24 24 25 25 25 24 24 25 25 25 26 26 24 23 21 19 19 18 16 15 14 13 12 12 11 10 10 10 10 11 11 11 11 10 11 11 12 12 13 13 12 10 9 8 6 6 9 9 6 8 10 10 10 10 10 11 12 11 11 12 12 12 13 14 13 12
26 27 27 26 25 26 27 26 27 27 26 29 27 23 26 27 26 27 26 25 25 25 25 26 25 25 25 25 26 27 26 26 25 23 21 20 19 18 17 15 14 13 12 11 11 10 10 10 11 12 11 9 9 8 9 9 10 12 11 10 9 8 7 5 7 9 7 6 7 10 10 9 9 10 11 12 11 10 11 12 12 12 14 13 12
28 28 28 27 26 25 27 27 25 26 25 27 28 24 26 26 24 27 28 27 26 25 23 24 25 25 26 26 26 27 26 26 27 26 23 20 20 20 18 17 15 14 13 12 11 11 10 10 12 11 9 7 7 7 8 7 8 10 9 9 8 8 7 6 7 8 6 6 8 10 9 9 9 9 10 11 11 10 10 11 11 11 13 13 12
24 25 27 27 27 25 26 27 26 27 27 29 30 27 26 25 24 26 27 25 25 23 21 21 22 22 24 25 24 26 26 24 26 27 24 20 20 21 19 17 17 16 14 13 12 11 11 11 11 10 7 7 7 6 7 7 8 10 10 9 8 7 7 5 6 6 6 7 8 9 9 9 9 9 10 11 11 10 10 10 11 11 12 13 13
22 24 26 25 25 26 26 27 27 28 31 31 31 27 26 25 24 26 25 22 21 22 21 20 21 20 21 22 21 24 25 24 24 25 23 20 19 21 20 18 17 17 15 13 13 12 11 10 10 10 10 9 7 6 8 8 8 10 10 9 8 6 6 5 5 6 6 6 8 9 9 9 9 9 9 10 11 9 9 10 10 10 11 12 12
22 23 24 23 23 25 26 28 27 28 30 32 30 26 25 24 21 24 23 20 20 21 20 19 20 20 19 19 19 20 22 23 23 23 22 19 19 19 19 18 17 17 17 15 14 13 12 11 11 11 11 9 8 8 7 7 7 10 10 9 7 6 5 7 7 6 5 5 7 9 9 9 9 8 8 9 10 8 9 9 10 10 10 11 11
22 22 23 23 22 24 26 28 29 27 27 29 31 27 25 23 20 22 20 19 21 20 19 19 18 19 19 19 19 17 17 19 20 22 22 19 19 19 19 18 17 17 18 17 16 15 14 13 12 11 11 10 10 9 6 7 7 9 10 9 7 5 6 7 7 7 5 4 6 8 9 10 9 8 7 8 8 8 9 10 10 9 9 11 11
23 22 23 23 23 24 27 28 28 27 25 27 31 29 26 22 20 21 19 19 21 18 17 18 17 18 19 19 19 17 15 17 17 19 21 19 18 19 19 18 17 17 19 20 19 18 15 13 12 12 12 10 10 9 7 7 8 8 9 9 7 5 5 7 7 6 6 4 4 7 9 10 10 7 6 7 7 7 8 9 10 9 8 9 10
22 22 23 23 23 24 27 28 28 27 26 27 29 27 27 24 20 19 18 19 19 17 17 17 16 16 18 19 18 16 16 17 17 17 19 19 16 17 19 19 17 16 17 20 20 19 17 15 14 13 13 11 9 10 9 7 7 7 8 8 7 5 5 7 7 6 6 4 3 7 9 10 9 7 6 7 8 8 8 8 8 9 8 8 10
21 21 22 22 23 25 27 28 29 27 25 27 26 22 24 25 21 19 17 19 19 17 17 16 15 15 16 18 18 16 16 18 17 16 17 18 16 16 16 18 17 15 15 18 20 20 18 15 14 14 14 11 10 11 10 8 7 6 6 6 6 5 6 7 6 7 6 4 3 6 7 9 8 7 6 7 7 8 7 7 6 7 7 7 9
21 21 23 23 23 25 27 28 29 29 27 26 25 21 20 20 18 18 16 17 18 17 15 15 15 15 15 18 18 17 17 17 17 16 17 18 17 15 14 15 16 15 14 16 21 23 19 16 16 16 16 13 10 10 11 10 9 7 6 6 6 5 7 7 6 7 7 5 5 5 5 6 7 7 6 5 6 7 7 7 7 7 7 7 8
22 22 22 23 23 25 28 29 31 34 33 26 23 21 20 18 16 16 15 16 17 16 15 14 15 14 15 18 18 17 17 17 17 17 17 18 19 16 14 14 14 15 14 14 21 25 22 18 17 17 17 14 10 10 12 11 10 8 7 7 6 5 6 7 6 7 8 7 6 5 5 4 5 6 6 5 5 6 7 7 7 8 7 6 6
20 20 22 24 24 25 28 31 34 39 37 28 24 23 21 19 16 15 15 15 16 16 16 15 14 13 15 17 18 17 17 16 16 18 17 17 18 19 17 15 15 15 14 13 17 24 25 21 18 18 18 15 12 12 12 11 11 10 9 7 6 5 6 7 6 6 8 7 6 5 5 5 4 4 4 5 5 4 5 6 5 6 6 6 6
17 19 21 24 25 26 29 32 35 37 36 30 27 25 22 20 18 16 15 15 16 16 16 15 13 13 13 16 17 17 17 16 16 17 17 16 17 20 18 16 16 16 14 13 14 20 26 25 21 19 18 16 14 12 11 11 11 9 9 8 6 5 5 7 7 6 7 7 5 5 5 5 5 4 2 2 3 4 4 4 3 3 3 5 6
18 19 20 23 27 28 29 33 34 33 32 31 30 27 22 21 19 17 16 16 16 15 15 14 13 13 12 13 16 18 17 16 17 17 18 17 15 18 18 17 17 16 15 15 15 18 24 27 25 21 19 17 15 13 11 10 9 8 9 9 8 6 5 6 7 6 6 6 5 4 5 5 6 6 5 2 1 2 3 3 2 2 1 3 5
19 20 20 22 26 27 27 29 31 32 31 31 31 29 25 22 19 18 17 17 17 14 13 13 14 13 12 12 15 17 17 16 18 18 18 17 15 16 17 17 18 18 17 17 16 16 21 27 27 25 22 17 16 15 13 11 9 7 8 9 8 8 6 5 7 7 6 6 6 5 5 5 6 7 8 5 4 2 2 3 2 1 1 1 3
18 19 22 22 23 27 28 26 27 29 31 31 30 28 26 22 19 17 18 18 17 17 15 14 14 14 13 13 14 15 16 15 17 18 18 17 15 15 16 18 19 19 19 19 20 20 22 26 26 27 25 19 16 16 15 14 11 8 9 10 9 8 7 6 6 7 7 6 6 5 5 6 5 5 7 8 7 5 2 2 3 2 2 0 2
17 19 22 22 22 26 23 21 25 27 27 26 24 24 23 22 21 19 19 18 17 18 19 18 16 14 14 14 14 14 14 14 15 16 17 17 16 16 16 18 19 20 19 19 22 26 27 24 21 25 28 22 16 16 16 15 11 8 9 11 11 9 7 7 6 7 7 6 6 6 6 6 5 5 6 7 8 7 4 2 2 2 1 1 2
17 19 20 20 22 24 19 17 23 26 26 24 22 22 22 22 21 20 21 21 20 19 21 22 19 14 14 15 14 14 14 14 14 14 16 17 18 18 18 18 19 21 20 19 21 24 27 24 18 21 29 24 17 17 17 15 11 8 9 11 12 11 9 8 7 7 7 6 6 7 7 6 6 6 6 6 7 7 7 5 4 4 4 1 2
16 18 18 20 22 23 20 17 20 22 26 28 26 25 24 23 22 22 23 24 25 24 22 22 21 17 15 14 14 13 14 15 15 15 15 17 18 19 20 19 19 20 21 21 19 19 22 21 17 17 25 25 19 18 17 16 12 9 9 10 12 13 12 11 9 7 8 8 7 7 7 7 7 7 6 6 6 6 7 7 6 7 7 4 1
14 17 18 20 22 22 20 20 21 20 25 28 28 29 27 25 25 26 28 27 27 28 25 22 20 19 17 15 13 14 15 16 17 16 16 17 17 19 19 18 18 19 20 21 20 20 20 19 17 17 21 24 21 19 19 18 15 11 10 10 10 12 12 12 10 9 10 9 8 8 8 8 8 8 7 7 7 6 5 6 7 8 9 6 3
11 15 18 19 21 23 22 23 24 24 25 28 29 30 29 26 25 24 26 27 27 27 26 21 19 21 22 18 14 15 15 15 15 17 17 17 17 17 17 16 16 18 20 21 20 22 22 20 19 18 21 24 22 20 20 21 17 12 11 10 10 10 11 12 12 12 12 12 11 10 10 10 9 9 8 8 9 8 6 6 7 8 9 9 7
9 14 16 17 20 25 25 24 27 28 28 29 30 29 28 27 25 21 21 26 26 24 21 18 17 21 24 20 18 18 17 14 14 17 18 19 19 18 17 15 16 17 19 19 20 21 22 22 20 19 21 25 23 22 22 23 19 14 14 13 10 11 10 11 11 12 12 12 12 11 10 11 11 10 9 9 9 9 9 8 7 7 8 9 9
8 12 14 15 18 23 27 27 28 29 27 27 28 27 26 26 23 21 21 23 23 21 19 17 17 20 23 23 23 22 21 18 16 17 18 21 22 20 19 17 17 18 18 18 19 20 20 21 21 20 22 24 26 26 25 25 21 17 16 13 9 10 9 8 9 9 9 10 11 11 11 11 11 11 10 9 10 10 10 11 9 8 7 8 9
7 11 12 14 17 18 23 29 31 31 28 26 26 26 26 27 26 26 26 24 24 24 23 22 22 23 24 25 24 23 25 23 19 17 18 20 23 22 21 19 18 19 19 18 19 20 20 21 20 20 22 23 26 28 28 27 22 18 18 15 12 9 7 8 9 8 8 9 9 10 11 11 11 12 11 10 12 12 11 12 12 9 8 7 9
6 9 10 12 16 16 18 24 29 30 29 28 27 27 28 30 31 29 27 28 30 29 28 27 26 24 24 24 24 25 27 25 21 19 19 20 22 23 22 20 19 18 19 19 19 20 21 20 20 21 23 23 26 28 29 26 23 21 20 18 17 13 8 9 8 7 8 9 10 11 11 11 12 11 11 11 13 13 12 13 13 11 9 8 8
6 9 10 11 14 17 19 21 23 24 26 28 30 29 29 30 33 32 28 29 30 29 28 27 25 23 22 21 22 24 27 27 23 20 21 21 21 23 23 21 20 19 20 20 19 20 20 19 20 23 24 23 26 27 26 26 25 24 22 18 18 18 14 11 9 7 7 8 10 13 12 12 12 12 11 12 13 14 14 13 13 14 12 10 9
7 7 10 12 13 16 19 22 23 23 26 30 31 30 28 27 30 33 33 29 25 25 27 25 23 21 20 19 19 22 27 29 24 19 21 23 22 23 24 22 21 19 19 19 20 20 19 19 20 22 24 24 25 25 23 26 27 24 23 20 18 19 17 13 12 9 9 9 9 11 12 11 11 11 11 12 14 15 15 14 13 14 15 13 11
7 6 8 11 12 14 17 20 23 24 27 32 33 30 26 25 27 30 33 30 25 24 25 25 24 21 20 20 20 22 24 26 23 20 21 23 25 25 25 24 23 22 21 19 20 21 20 20 20 21 23 23 24 24 22 25 26 23 23 21 19 19 16 13 13 11 10 11 10 8 10 9 8 8 9 9 12 15 16 15 13 15 16 15 13
7 7 7 9 11 13 15 18 22 24 28 33 34 30 27 26 25 26 29 29 28 27 26 26 24 22 20 19 21 23 22 21 20 21 22 24 26 27 26 26 25 24 23 22 22 23 22 22 22 22 23 23 23 23 22 22 24 23 23 21 20 19 16 13 12 11 11 11 10 9 8 8 7 8 8 8 10 13 16 15 14 15 16 16 15
Wind_Direction
172 170 172 172 167 167 166 165 167 168 170 169 170 169 169 168 167 166 164 164 160 155 151 148 145 147 150 149 147 145 145 143 141 137 134 133 130 127 124 118 111 106 104 104 103 102 100 98 96 93 94 95 97 100 101 100 97 95 97 98 99 97 96 94 92 90 88 83 79 77 77 77 76 76 77 78 78 79 78 76 72 69 70 71 72
174 170 173 172 169 168 167 166 167 169 171 171 172 172 171 170 169 168 167 168 164 159 155 152 151 151 154 152 149 147 145 144 143 140 139 136 132 129 124 116 109 106 105 104 103 101 98 96 94 94 95 95 94 95 100 101 99 98 99 101 100 99 96 93 91 89 85 80 76 72 71 71 73 73 73 74 75 79 80 81 79 73 74 75 72
169 169 173 173 170 169 170 167 168 170 172 172 173 174 174 173 172 171 171 171 167 162 159 157 155 155 158 155 152 150 147 146 146 145 142 138 135 131 123 115 110 108 105 103 102 100 97 96 95 96 97 96 93 92 97 102 102 101 101 102 102 99 96 93 92 89 84 79 74 69 66 65 67 68 67 68 72 76 79 82 83 79 79 80 76
165 168 173 174 170 171 172 168 170 171 172 173 174 176 175 174 173 172 173 173 170 165 163 162 159 160 162 158 155 152 149 149 150 148 145 141 137 130 122 116 112 110 106 104 102 100 98 96 96 98 99 98 94 91 93 100 105 105 103 103 102 99 97 95 92 87 82 78 74 71 67 63 61 62 61 63 66 69 71 71 75 77 77 76 71
163 168 173 173 170 173 173 171 172 172 173 174 176 176 176 175 174 173 173 173 171 167 166 166 164 164 164 161 159 155 152 152 152 150 147 143 137 129 122 119 116 112 108 105 102 101 99 96 96 98 100 99 96 91 89 96 105 108 106 103 101 99 100 98 92 86 82 79 77 74 70 65 61 58 55 56 58 58 59 60 59 49 45 48 38
162 169 171 172 172 175 175 173 174 174 175 176 178 178 178 178 176 174 173 173 171 169 169 169 168 168 167 163 161 158 155 155 154 152 149 144 137 130 124 121 118 115 111 106 103 102 99 96 95 95 98 99 97 92 89 93 101 108 108 103 101 101 102 99 94 89 81 75 74 70 65 62 58 52 45 41 39 36 28 30 30 10 15 23 10
164 169 170 172 173 176 176 175 176 176 178 179 180 180 181 179 177 175 172 173 171 171 171 171 171 172 170 165 164 161 157 157 156 154 150 145 138 131 126 123 120 118 113 110 108 105 101 98 94 92 94 97 99 95 91 91 96 103 106 104 101 102 102 100 97 91 81 74 72 69 65 60 52 42 35 26 13 9 2 354 346 341 352 353 347
164 168 170 172 176 178 176 177 177 179 181 181 182 181 180 179 178 174 172 172 172 173 174 174 174 175 173 168 166 163 159 159 157 154 152 147 140 133 128 123 121 118 114 111 110 107 103 101 96 92 91 95 100 99 94 91 92 96 102 103 102 103 101 97 90 85 83 80 74 71 66 60 55 44 31 24 17 9 5 357 345 341 343 342 343
163 165 168 173 179 178 177 179 179 181 183 183 184 182 180 179 177 174 173 173 173 174 175 176 176 177 174 170 168 165 162 160 159 156 154 149 141 135 129 124 120 116 112 109 108 105 103 102 97 93 92 94 99 100 96 93 92 92 95 99 102 102 96 91 84 80 79 77 74 72 69 63 53 36 22 21 25 18 10 6 358 357 355 354 358
163 164 168 174 181 179 179 181 181 184 184 185 185 183 180 180 178 175 174 174 175 176 177 177 178 179 176 173 171 167 164 162 161 159 157 151 142 137 132 126 121 116 110 107 105 103 102 102 99 94 92 93 97 99 97 94 93 92 92 95 101 101 97 90 82 82 79 74 70 62 59 58 42 27 28 26 27 24 19 13 2 5 11 18 28
162 166 169 174 181 181 182 182 183 186 186 187 186 184 182 181 179 175 175 175 176 176 177 178 179 180 177 175 173 168 165 164 163 161 159 152 145 139 134 129 124 119 112 107 104 102 100 101 99 95 93 93 95 97 96 93 92 91 91 93 98 100 102 94 85 85 80 71 68 60 47 43 39 36 37 34 33 33 33 33 37 45 46 51 55
164 167 169 178 184 182 183 183 185 188 187 188 186 185 183 182 179 176 176 175 176 177 177 178 180 180 178 177 174 170 167 166 165 164 161 153 147 140 137 133 126 121 114 109 105 102 100 100 100 96 94 94 94 97 96 94 92 91 91 92 95 96 97 95 93 87 76 66 67 62 44 40 42 42 40 40 44 46 48 53 63 69 69 69 67
167 169 170 181 185 183 184 184 186 189 188 188 188 186 184 183 179 177 178 177 177 178 177 178 180 181 179 178 174 172 169 168 168 166 163 156 148 143 140 135 128 121 115 110 107 104 101 100 100 98 96 95 94 96 96 95 94 93 92 93 94 93 89 90 92 83 72 64 62 53 39 40 42 44 44 45 50 56 63 68 71 71 72 74 72
168 169 173 179 183 184 185 185 188 190 189 189 189 187 185 184 181 179 179 179 179 179 179 178 180 181 179 178 175 173 171 171 170 168 164 158 151 146 143 138 130 121 114 111 109 107 104 101 100 98 97 95 93 94 95 95 95 96 94 94 94 93 88 84 83 77 68 65 66 55 37 39 44 48 49 50 57 63 66 69 72 71 70 72 72
170 170 173 176 182 184 185 187 191 191 189 190 190 188 187 185 183 182 181 181 180 180 180 180 180 181 180 179 177 175 174 173 172 170 166 161 154 149 148 142 132 123 115 112 111 110 106 102 100 98 96 93 93 93 94 94 94 96 96 95 95 92 88 81 77 74 68 63 63 53 41 45 50 53 56 62 65 64 66 70 73 71 69 71 72
172 172 174 175 183 185 185 188 193 192 191 192 191 189 188 187 186 184 184 183 182 182 181 182 182 181 181 180 178 177 175 175 175 173 169 164 159 155 153 147 136 127 119 115 113 112 109 104 102 99 97 92 91 93 94 93 92 94 96 96 94 89 87 82 76 72 68 64 60 50 43 49 55 57 63 70 70 67 69 73 74 73 73 73 74
174 174 174 175 182 185 186 189 194 192 192 194 192 190 190 188 187 186 186 185 185 184 183 184 183 183 183 182 181 180 178 178 179 176 171 169 165 162 158 151 141 132 125 120 116 114 112 107 104 102 100 94 89 92 95 95 94 94 95 95 93 89 88 85 77 72 70 73 73 65 51 50 60 64 64 72 73 70 70 72 76 78 76 75 75
176 174 175 178 181 185 187 190 193 192 192 195 194 192 192 190 188 188 187 187 187 186 186 186 186 185 184 184 183 182 181 180 182 180 175 174 172 168 164 156 147 139 131 126 121 117 116 111 107 106 104 98 89 90 95 99 97 96 96 94 91 90 87 83 77 66 62 74 72 62 59 55 63 69 67 71 72 71 73 74 77 78 76 74 76
178 173 177 182 181 184 188 191 191 192 192 192 195 194 193 192 190 189 189 188 188 187 187 188 189 188 186 186 186 185 184 183 184 184 180 180 178 175 169 162 155 147 138 132 126 122 120 116 111 108 108 102 92 90 95 100 99 97 97 95 91 87 83 79 77 63 58 80 78 59 63 62 63 71 73 73 73 74 75 74 76 77 76 75 76
180 176 179 184 183 185 189 191 190 192 194 191 194 194 193 193 191 191 190 189 188 189 189 190 190 190 189 189 188 188 187 187 187 187 186 185 185 182 176 170 164 156 147 140 133 129 125 121 116 111 111 107 97 93 96 100 100 98 97 95 89 82 80 79 80 69 63 77 75 64 67 68 66 72 75 74 75 76 75 74 77 78 76 76 77
183 180 183 185 186 186 188 191 189 190 196 194 194 195 192 192 192 192 191 190 188 189 190 191 191 191 192 192 191 191 190 190 189 190 190 190 191 188 183 178 172 165 156 148 141 136 132 126 121 115 110 109 100 93 95 97 98 98 95 91 87 84 85 82 81 77 73 69 64 66 71 71 71 74 73 74 75 74 74 76 79 79 78 76 75
184 183 186 187 187 187 188 190 189 189 195 197 195 193 190 191 193 192 192 191 189 190 191 193 193 193 194 194 195 194 193 193 192 192 192 194 195 193 189 185 181 175 164 157 149 142 138 132 125 117 108 106 99 91 91 90 94 96 91 88 90 93 90 79 73 78 83 75 61 67 74 74 77 78 72 73 77 74 72 76 79 82 85 79 73
188 186 185 188 187 188 192 191 190 190 193 197 195 194 192 191 193 193 192 191 190 190 193 194 195 196 196 196 197 197 197 196 196 195 195 196 197 197 195 191 188 183 173 164 158 151 144 138 131 120 106 103 101 97 97 93 93 92 88 92 100 100 92 75 73 81 91 87 69 70 77 79 85 85 74 73 77 75 74 77 79 81 86 82 73
189 186 184 188 187 190 196 192 189 191 194 195 193 197 196 189 191 195 193 192 191 190 192 193 195 198 198 198 198 199 199 199 201 199 198 199 199 200 198 196 195 189 181 173 166 159 151 144 138 124 102 106 113 108 105 103 102 98 98 104 105 103 92 75 81 94 100 88 75 73 79 84 91 89 77 75 76 76 78 78 79 80 82 80 73
187 186 186 189 189 190 196 192 188 192 198 198 194 197 197 189 191 195 193 193 191 190 191 191 191 195 199 197 198 201 200 200 205 203 199 200 201 202 200 200 199 194 188 181 177 168 160 155 144 131 120 131 137 129 119 114 117 114 112 109 104 101 95 81 83 96 98 89 77 74 82 89 96 92 78 78 78 76 79 81 82 82 80 81 78
190 190 189 190 191 191 194 194 192 194 200 203 196 195 196 191 194 196 193 192 191 190 191 192 191 192 194 194 196 203 200 199 206 204 198 198 200 202 200 198 199 199 192 185 189 179 168 166 155 149 149 153 156 149 136 123 120 117 113 109 106 103 102 96 84 80 84 88 82 77 84 90 97 93 79 76 74 73 82 86 85 82 81 84 81
196 196 193 191 193 193 195 195 195 195 197 202 199 195 195 192 196 198 193 192 192 192 192 194 195 191 190 191 196 201 199 198 205 204 197 197 199 198 196 196 197 199 195 190 194 184 174 176 172 165 158 161 166 157 142 130 119 116 115 112 111 112 111 104 92 87 88 88 82 80 85 91 96 91 81 74 65 70 86 89 89 83 79 83 81
200 200 197 197 196 193 196 197 197 195 194 200 201 199 196 192 199 202 195 193 195 193 194 196 198 196 191 192 195 196 195 196 202 203 198 196 200 198 196 198 197 197 198 195 196 193 188 188 187 177 163 164 166 157 149 144 130 120 118 116 115 115 113 105 97 101 110 103 79 80 88 92 97 89 79 71 58 71 86 88 92 87 79 82 83
204 204 199 199 198 194 197 198 195 195 195 201 204 202 197 192 197 204 200 198 198 194 196 196 198 199 195 196 196 192 191 193 197 200 198 196 199 199 196 200 200 199 202 200 203 207 205 199 194 183 171 174 170 160 165 158 138 126 122 121 121 118 113 104 102 112 122 123 87 85 90 93 102 99 78 68 67 83 90 87 90 89 81 81 84
208 208 202 201 200 197 198 196 194 197 200 205 206 203 203 199 198 204 204 204 201 196 198 198 198 201 199 198 197 193 189 191 196 196 200 197 196 199 196 199 200 202 205 204 210 214 211 206 198 188 179 181 177 166 168 164 149 138 131 129 127 125 117 106 113 123 123 132 101 84 87 93 104 101 78 74 82 94 97 94 90 86 81 80 88
213 212 207 203 200 198 199 196 195 199 201 207 207 201 204 206 201 202 205 208 204 198 199 200 200 201 201 200 197 196 189 190 195 194 201 200 196 200 198 199 200 202 206 205 211 212 210 205 196 193 186 182 181 171 170 176 171 158 144 137 129 120 111 115 130 126 121 137 115 90 87 91 101 99 83 76 83 94 100 102 97 85 79 79 92
219 216 212 208 204 201 201 198 196 199 202 204 207 201 200 204 200 199 204 210 207 199 199 202 202 200 202 203 198 198 192 190 194 192 200 204 201 201 199 200 200 203 207 205 210 211 209 202 198 203 195 184 183 176 175 184 181 169 166 156 142 126 114 124 138 131 134 142 131 123 109 95 96 100 97 84 80 84 90 99 102 95 86 79 92
223 221 215 211 209 204 202 202 199 202 206 204 202 199 198 202 201 198 199 208 211 203 201 204 204 201 201 203 200 199 196 192 194 192 198 207 206 203 202 203 201 204 206 203 209 211 209 203 203 209 202 188 185 182 179 184 182 174 180 172 153 139 127 138 145 137 140 137 138 144 138 128 106 96 95 90 82 74 75 81 92 100 95 82 83
226 225 220 212 209 206 203 204 201 205 209 205 202 201 197 201 203 201 197 204 213 207 202 205 206 204 202 205 200 198 199 194 194 194 196 205 209 208 205 204 203 206 207 202 206 208 209 209 207 208 205 192 188 194 186 183 185 181 186 180 160 151 142 152 157 144 138 139 151 150 146 157 145 121 100 91 90 81 79 75 81 95 93 87 81
225 225 224 216 210 207 204 204 202 204 207 204 205 205 200 201 202 201 198 201 212 210 204 206 210 209 205 206 202 199 199 196 194 194 196 200 209 212 207 204 203 204 207 205 204 204 207 212 209 206 204 194 189 194 189 187 186 182 188 184 170 169 159 161 165 156 148 151 160 156 158 159 156 168 152 101 95 90 96 91 89 93 76 80 74
227 223 222 217 213 210 206 205 201 199 202 203 205 205 201 203 203 201 198 200 209 212 209 209 211 212 209 207 206 203 197 194 194 194 196 198 205 212 208 206 207 205 205 205 204 203 207 212 210 206 203 195 188 187 190 194 186 180 185 184 180 180 172 172 171 167 164 162 165 169 167 160 171 176 162 179 205 98 109 116 119 126 70 62 62
232 228 223 219 216 213 209 206 203 199 200 202 204 206 204 203 203 200 200 202 204 207 212 213 211 210 210 210 211 208 200 196 197 195 197 197 202 210 209 209 210 210 211 210 208 204 208 212 211 209 205 196 190 188 187 189 188 185 182 182 187 185 185 187 175 175 181 173 174 179 174 170 183 175 157 168 203 202 123 115 133 157 134 45 54
239 236 227 224 217 212 210 209 209 207 206 206 206 210 212 210 209 207 206 208 207 205 209 214 214 210 208 211 213 211 204 197 197 197 197 195 200 210 212 214 213 212 214 216 214 210 211 213 211 211 209 199 193 192 188 186 188 188 180 185 193 187 187 199 187 183 190 187 187 186 184 187 187 177 167 170 180 192 201 123 128 134 145 72 47
242 236 226 228 220 214 218 221 218 213 211 213 213 215 219 219 222 226 221 214 212 209 209 213 216 213 208 208 211 210 205 199 196 198 199 195 199 207 210 215 217 214 214 217 218 217 217 216 208 208 210 203 196 197 194 190 189 186 184 187 192 188 191 205 200 189 194 196 199 199 196 193 193 195 186 178 178 180 202 206 128 136 202 75 86
241 238 233 237 229 224 233 231 220 217 215 215 217 215 213 214 218 227 231 229 227 220 215 215 216 217 214 209 210 212 212 210 201 197 201 199 200 207 209 213 217 215 215 215 216 218 220 218 207 206 210 204 199 200 198 194 190 183 187 188 188 191 197 209 208 199 207 210 204 203 205 201 200 206 193 184 188 179 187 200 168 187 234 257 112
238 240 241 242 237 234 234 220 206 214 224 221 218 216 212 214 215 220 232 240 238 232 226 221 218 219 218 211 210 213 219 224 217 206 207 205 202 208 211 212 214 214 216 216 214 215 217 215 206 204 209 204 200 201 198 193 188 180 185 188 190 195 199 207 214 214 222 225 215 208 210 207 204 214 213 199 199 188 184 187 176 185 213 242 203
232 238 243 240 238 234 226 215 200 203 222 224 222 221 218 219 221 227 234 237 238 239 238 231 223 223 222 214 210 212 216 224 226 222 218 210 203 208 213 214 213 211 215 217 216 215 214 210 204 204 205 203 202 203 200 194 189 186 186 185 192 202 208 212 216 222 230 235 227 218 218 215 208 214 224 215 208 207 195 187 184 184 196 214 226
229 236 242 235 233 229 220 219 212 204 212 218 221 224 225 225 224 227 231 233 236 240 240 232 226 232 234 225 213 215 217 216 221 224 224 217 207 207 212 213 212 209 212 216 217 216 216 210 206 205 201 199 203 206 207 202 192 188 190 191 196 205 219 224 223 226 229 234 233 224 220 220 217 212 216 221 217 216 212 201 193 190 191 192 198
228 228 234 225 223 227 223 221 218 213 213 217 219 220 226 232 229 223 226 231 234 236 234 226 222 231 235 229 221 224 223 213 213 221 228 229 220 211 210 211 212 209 207 212 217 217 218 214 208 208 201 196 199 204 210 206 194 187 191 196 198 204 222 229 223 225 225 226 229 229 223 221 224 220 215 218 219 218 219 218 204 197 196 188 190
236 225 227 221 218 223 225 222 219 218 215 219 223 218 219 229 228 220 218 220 222 225 224 220 222 229 234 233 230 231 231 224 217 218 226 234 232 221 212 212 213 212 207 208 215 217 218 216 211 210 205 198 200 206 211 207 198 194 194 192 193 209 224 214 200 211 222 223 223 226 226 222 222 224 224 220 218 217 221 226 219 207 204 194 194
249 237 231 224 219 220 223 221 219 220 218 219 225 219 216 223 224 218 214 213 216 222 226 229 231 231 232 232 228 229 235 234 222 214 217 226 232 227 217 213 213 213 210 207 213 216 215 215 213 212 209 203 204 210 214 207 201 203 202 199 203 214 215 195 189 196 213 229 228 224 225 223 222 222 224 223 220 218 220 228 230 221 212 204 201
246 242 238 228 220 218 221 218 217 220 222 222 223 219 216 221 225 223 219 222 224 225 231 236 235 232 231 230 228 230 235 234 224 216 216 219 226 226 219 214 212 213 211 207 212 216 215 213 211 211 209 206 205 212 218 213 203 206 209 210 215 218 203 190 198 200 204 219 224 225 225 225 228 227 224 224 223 222 221 225 232 231 222 217 212
246 229 230 232 222 217 220 221 217 216 219 220 218 215 215 219 225 228 228 230 228 227 231 234 230 231 233 232 231 234 236 234 226 218 217 217 220 223 219 214 210 211 211 209 212 216 216 211 210 211 208 208 208 211 219 219 213 212 213 214 219 223 219 211 216 225 226 225 221 219 219 221 228 230 228 224 222 225 224 222 225 230 229 227 223
269 233 221 229 227 218 218 221 222 217 215 216 213 211 214 222 228 230 231 230 225 222 226 225 222 223 225 225 225 229 234 234 227 217 217 217 219 221 219 214 210 209 210 211 213 215 214 209 210 213 209 209 213 211 214 220 220 219 218 220 223 223 224 227 228 231 240 244 231 210 205 218 229 230 228 223 219 220 222 222 220 223 229 233 232
294 264 234 228 229 224 217 218 223 222 216 214 209 207 212 223 231 231 231 227 217 210 212 216 220 218 216 220 225 226 228 232 227 218 217 217 219 221 218 215 213 211 211 211 213 216 215 210 209 213 211 210 214 211 211 220 221 220 224 228 228 222 218 221 227 228 232 244 251 227 206 217 234 234 232 224 217 216 215 218 218 219 226 232 234
315 289 261 238 230 228 222 216 220 224 221 216 210 207 209 216 227 233 230 224 216 212 213 217 219 216 214 219 229 229 224 229 227 220 223 224 220 220 219 218 217 215 214 212 212 215 216 214 213 216 214 211 214 212 212 220 221 220 226 228 226 222 214 213 221 224 226 233 248 250 229 221 232 235 236 227 214 213 214 215 216 219 223 227 230